Location: Asheville, NC
(35.6000°N, 82.5500°W)
Time: 03:31:31
(UTC-04:00)

PCSat - Visible Passes

Search period start: 21 April 2018 00:00
Search period end: 01 May 2018 00:00
Orbit: 785 x 795 km, 67.1° (Epoch: 20 April)

Date Brightness Start Highest point End Pass type
(mag) Time Alt. Az. Time Alt. Az. Time Alt. Az.
21 Apr 12.3 00:31:59 10° WNW 00:32:32 12° WNW 00:32:32 12° WNW visible
21 Apr 10.6 22:17:11 10° N 22:21:53 31° NE 22:21:53 31° NE visible
22 Apr 11.7 00:00:34 10° NW 00:02:36 20° WNW 00:02:36 20° WNW visible
22 Apr 10.9 21:46:38 10° N 21:50:55 23° NE 21:52:00 22° ENE visible
22 Apr 11.0 23:29:21 10° NW 23:32:43 33° WNW 23:32:43 33° WNW visible
23 Apr 11.3 21:16:15 10° N 21:19:48 17° NE 21:22:09 14° E visible
23 Apr 10.0 22:58:17 10° NNW 23:02:52 57° WNW 23:02:52 57° WNW visible
24 Apr 11.6 20:46:13 10° NNE 20:48:37 13° NE 20:51:01 10° ENE visible
24 Apr 9.4 22:27:19 10° NNW 22:32:46 89° ENE 22:33:04 81° SSE visible
25 Apr 9.6 21:56:26 10° NNW 22:01:50 64° ENE 22:03:19 45° ESE visible
25 Apr 11.9 23:41:49 10° WNW 23:44:03 14° W 23:44:03 14° W visible
26 Apr 10.0 21:25:40 10° NNW 21:30:52 45° ENE 21:33:37 25° ESE visible
26 Apr 11.4 23:09:55 10° WNW 23:13:52 21° WSW 23:14:21 21° WSW visible
27 Apr 10.5 20:54:58 10° N 20:59:51 33° NE 21:03:59 13° ESE visible
27 Apr 11.0 22:38:27 10° NW 22:43:06 30° WSW 22:44:43 25° SW visible
28 Apr 10.5 22:07:13 10° NW 22:12:18 42° WSW 22:15:09 23° SSW visible
29 Apr 10.0 21:36:07 10° NW 21:41:28 61° WSW 21:45:39 16° S visible
30 Apr 9.6 21:05:08 10° NNW 21:10:35 87° WSW 21:16:00 10° SSE visible
